Regional Weather Roundup
Issued by NWS Sterling, VA

Home | Current Version | Previous Version | Graphics & Text | Print | Product List | Glossary On
Versions: 1 2 3 4 5 6 7 8 9 10 11 12 13 14 15 16 17 18 19 20 21 22 23 24 25 26 27 28 29 30 31 32 33 34 35 36 37 38 39 40 41 42 43 44 45 46 47 48 49 50
646
ASUS41 KLWX 231411
RWRLWX

REGIONAL WEATHER ROUNDUP
NATIONAL WEATHER SERVICE BALTIMORE MD/WASHINGTON DC
1000 AM EDT FRI JUN 23 2017

Note: "FAIR" indicates few or no clouds below 12,000 feet
with no significant weather and/or obstructions to visibility.
 TC=TEMPERATURE CELSIUS

 * =Non NWS site. Station does not report precipitation (e.g. rain,
    snow, etc.), thunder, or fog.

DCZ001-MDZ009-015-VAZ040>042-051-053>054-231500-
WASHINGTON METRO

CITY           SKY/WX    TMP DP  RH WIND       PRES   REMARKS
WASHINGTON NAT CLOUDY    78  74  87 SW16      29.84F
DULLES         CLOUDY    76  71  85 S14G22    29.83F
ANDREWS AFB    CLOUDY    75  72  88 SW14G24   29.84F
FT BELVOIR     CLOUDY    77  72  85 S6        29.84F
QUANTICO       CLOUDY    79  74  84 SW10      29.85F
COLLEGE PARK*  CLOUDY    75  71  87 S6        29.83F
LEESBURG*      CLOUDY    77  73  88 SW7       29.84F
MANASSAS*      CLOUDY    79  73  82 SW13G21   29.84F
GAITHERSBURG*  LGT RAIN  75  71  87 VRB6      29.85F

$$

MDZ006>007-011-014-231500-
BALTIMORE METRO

CITY           SKY/WX    TMP DP  RH WIND       PRES   REMARKS
BWI AIRPORT    CLOUDY    75  73  93 SW7       29.83F
MD SCIENCE CTR   N/A     77  73  87 MISG      29.83F
MARTIN STATE   CLOUDY    75  75 100 S9        29.85F
ANNAPOLIS      CLOUDY    76  75  97 S9        29.84F
FORT MEADE*    CLOUDY    72  70  94 S6        29.86F

$$

MDZ012-015-019>023-231500-
MARYLAND EASTERN SHORE

CITY           SKY/WX    TMP DP  RH WIND       PRES   REMARKS
OCEAN CITY     CLOUDY    74  72  93 SW8       29.91F
SALISBURY      LGT RAIN  75  74  96 SW12      29.90F
BAY BRIDGE AP* CLOUDY    75  72  88 S9G18     29.85F
CAMBRIDGE*     PTSUNNY   73  73 100 S6        29.88F
EASTON*        DRIZZLE   75  72  88 S9        29.90F

$$

MDZ017>025-231500-
SOUTHERN MARYLAND

CITY           SKY/WX    TMP DP  RH WIND       PRES   REMARKS
PATUXENT RIVER CLOUDY    76  73  91 SW13G22   29.87F
ST INIGOES     HVY RAIN  76  73  91 S13       29.88F FOG
LEONARDTOWN*   CLOUDY    73  70  88 SW12G17   29.89F

$$

MDZ003>005-231500-
NORTH CENTRAL MARYLAND

CITY           SKY/WX    TMP DP  RH WIND       PRES   REMARKS
FREDERICK*     CLOUDY    77  73  88 SW12      29.84F
HAGERSTOWN APT CLOUDY    75  71  87 S14       29.81S
WESTMINSTER*   CLOUDY    75  72  88 S9        29.83F

$$

MDZ501>502-231500-
WESTERN MARYLAND

CITY           SKY/WX    TMP DP  RH WIND       PRES   REMARKS
OAKLAND*       NOT AVBL
CUMBERLAND*    CLOUDY    72  72 100 SE5       29.85F

$$

VAZ025>031-231500-
SHENANDOAH VALLEY

CITY           SKY/WX    TMP DP  RH WIND       PRES   REMARKS
WINCHESTER*    CLOUDY    73  68  83 S10       29.83F
FRONT ROYAL*   PTSUNNY   77  72  83 SW8       29.83F
LURAY*         MOSUNNY   79  72  78 SW16      29.85F
NEW MARKET*    CLOUDY    79  70  73 SW7       29.83F
STAUNTON*      CLOUDY    76  69  80 SW9       29.91F
WAYNESBORO*    PTSUNNY   78  72  82 SW14G21   29.92S

$$

WVZ021-048>050-054>055-231500-
EASTERN WEST VIRGINIA PANHANDLE

CITY           SKY/WX    TMP DP  RH WIND       PRES   REMARKS
MARTINSBURG    CLOUDY    75  69  81 SW8       29.81F
PETERSBURG*    CLOUDY    79  71  77 S3        29.82F

$$

VAZ036>039-050-231500-
CENTRAL FOOTHILLS

CITY           SKY/WX    TMP DP  RH WIND       PRES   REMARKS
CHARLOTTESVILL PTSUNNY   81  73  76 S15       29.87F
CULPEPER*      PTSUNNY   80  74  81 SW16      29.86F
ORANGE*        CLOUDY    75  72  88 S16G24    29.87F
GORDONSVILLE*  CLOUDY    77  74  90 SW16      29.87F
WARRENTON*     CLOUDY    80  70  72 S12G20    29.84F

$$

VAZ055>057-231500-
NORTH AND CENTRAL PIEDMONT

CITY           SKY/WX    TMP DP  RH WIND       PRES   REMARKS
FREDERICKSBRG* PTSUNNY   78  76  92 SW18      29.86F
STAFFORD*      CLOUDY    77  74  91 SW7G18    29.90F

$$

NCZ024-NYZ072-PAZ021-071-VAZ022-071-231500-
OTHER REGIONAL OBSERVATIONS

CITY           SKY/WX    TMP DP  RH WIND       PRES   REMARKS
NEW YORK CITY  CLOUDY    81  73  76 CALM      29.81F
PHILADELPHIA   LGT RAIN  77  71  82 SW18G31   29.84S
PITTSBURGH     DRIZZLE   72  71  97 SW13      29.76F
RICHMOND       CLOUDY    76  72  87 SW14      29.91F
RALEIGH        CLOUDY    77  74  90 SW14      29.99F

$$

ANZ530>537-231500-
MARINE OBSERVATIONS

STATION/POSITION TIME  TEMP    WIND        PRES
                       AIR SEA DIR/SP/G
                 (UTC) (F)     (DEG/KT/KT) (MB)
THOMAS PT LIGHT  1400   75 78  210/ 17/ 20   N/A
BALT KEY BRIDGE  1348   74     190/  9/ 11 1009.7F
COVE POINT       1348   75     220/ 17/ 23 1012.1F
LEWISETTA        1348   76 78  230/ 13/ 16 1011.9F
SOLOMONS ISLAND  1348   76 77  220/ 16/ 22   N/A
PINEY POINT      1348          230/ 13/ 16   N/A

$$





USA.gov is the U.S. government's official web portal to all federal, state and local government web resources and services.